Location: Fishcreek Rd Observing Site
(41.1865°N, 81.4271°W)
Time: 02:02:10
(UTC-04:00)

ISS - Visible Passes

Search period start: 21 October 2018 00:00
Search period end: 31 October 2018 00:00
Orbit: 403 x 408 km, 51.6° (Epoch: 21 October)

Date Brightness Start Highest point End Pass type
(mag) Time Alt. Az. Time Alt. Az. Time Alt. Az.
25 Oct -0.6 06:32:34 10° SSE 06:33:55 12° SE 06:35:15 10° ESE visible
26 Oct -3.1 07:14:46 10° SW 07:17:59 56° SE 07:21:13 10° ENE visible
27 Oct -1.9 06:23:11 10° SSW 06:26:03 28° SE 06:28:56 10° ENE visible
28 Oct -1.0 05:34:10 15° SE 05:34:12 15° SE 05:36:12 10° E visible
28 Oct -3.7 07:07:07 10° WSW 07:10:22 60° NNW 07:13:36 10° NE visible
29 Oct -3.7 06:17:37 51° SSW 06:18:18 73° SE 06:21:35 10° ENE visible
30 Oct -1.0 05:28:10 19° E 05:28:10 19° E 05:29:22 10° ENE visible
30 Oct -2.8 07:00:52 17° W 07:02:50 30° NNW 07:05:48 10° NE visible
